When you browse on this site, cookies collect data to enhance your experience and personalize the content and advertising you see.
Visit our Privacy Policy to learn more. By continuing to use the site, you agree to this use of cookies and data.
  • In Hungary
  • List of Countries
  • For 7 days
  • Water Temperature
  • Weather Map
  • News
  • Weather Widgets
  • user-avatar
    Login

    Hourly Weather Ziemielowice

    Today, 23 September, Monday

    Time Temperature Precipitation Wind Pressure Humidity
    00:00 +13°C° 0 mm 2 mps 746 mmHg 59%
    01:00 +12°C° 0 mm 2 mps 746 mmHg 59%
    02:00 +12°C° 0 mm 2 mps 746 mmHg 60%
    03:00 +12°C° 0 mm 2 mps 746 mmHg 62%
    04:00 +12°C° 0 mm 2 mps 745 mmHg 63%
    05:00 +12°C° 0 mm 2 mps 746 mmHg 66%
    06:00 +13°C° 0 mm 2 mps 746 mmHg 69%
    07:00 +13°C° 0 mm 2 mps 746 mmHg 72%
    08:00 +16°C° 0 mm 3 mps 746 mmHg 66%
    09:00 +18°C° 0 mm 3 mps 746 mmHg 59%
    10:00 +20°C° 0 mm 4 mps 746 mmHg 52%
    11:00 +21°C° 0 mm 4 mps 746 mmHg 49%
    12:00 +22°C° 0 mm 4 mps 746 mmHg 47%
    13:00 +23°C° 0 mm 4 mps 746 mmHg 44%
    14:00 +22°C° 0 mm 4 mps 746 mmHg 45%
    15:00 +22°C° 0 mm 3 mps 746 mmHg 47%
    16:00 +22°C° 0 mm 3 mps 746 mmHg 48%
    17:00 +20°C° 0 mm 3 mps 746 mmHg 54%
    18:00 +18°C° 0 mm 3 mps 746 mmHg 59%
    19:00 +16°C° 0 mm 3 mps 746 mmHg 65%
    20:00 +14°C° 0 mm 3 mps 746 mmHg 68%
    21:00 +14°C° 0 mm 3 mps 746 mmHg 71%
    22:00 +13°C° 0 mm 3 mps 747 mmHg 74%
    23:00 +12°C° 0 mm 3 mps 747 mmHg 77%

    Tomorrow, 24 September, Tuesday

    Time Temperature Precipitation Wind Pressure Humidity
    00:00 +13°C° 0 mm 2 mps 747 mmHg 81%
    01:00 +12°C° 0 mm 2 mps 747 mmHg 84%
    02:00 +12°C° 0 mm 2 mps 747 mmHg 85%
    03:00 +12°C° 0 mm 2 mps 746 mmHg 87%
    04:00 +12°C° 0 mm 2 mps 746 mmHg 88%
    05:00 +12°C° 0 mm 2 mps 746 mmHg 86%
    06:00 +13°C° 0 mm 2 mps 746 mmHg 84%
    07:00 +13°C° 0 mm 1 mps 746 mmHg 82%
    08:00 +15°C° 0 mm 1 mps 746 mmHg 74%
    09:00 +18°C° 0 mm 1 mps 746 mmHg 67%
    10:00 +20°C° 0 mm 1 mps 746 mmHg 60%
    11:00 +21°C° 0 mm 1 mps 746 mmHg 56%
    12:00 +22°C° 0 mm 1 mps 746 mmHg 53%
    13:00 +23°C° 0 mm 1 mps 745 mmHg 49%
    14:00 +23°C° 0 mm 1 mps 745 mmHg 49%
    15:00 +23°C° 0 mm 1 mps 745 mmHg 49%
    16:00 +23°C° 0 mm 2 mps 744 mmHg 49%
    17:00 +21°C° 0 mm 2 mps 744 mmHg 54%
    18:00 +19°C° 0 mm 2 mps 744 mmHg 58%
    19:00 +17°C° 0 mm 3 mps 744 mmHg 62%
    20:00 +17°C° 0 mm 3 mps 744 mmHg 63%
    21:00 +17°C° 0 mm 3 mps 744 mmHg 63%
    22:00 +16°C° 0 mm 3 mps 744 mmHg 64%
    23:00 +16°C° 0.1 mm 2 mps 743 mmHg 66%

    Day after tomorrow, 25 September, Wednesday

    Time Temperature Precipitation Wind Pressure Humidity
    00:00 +16°C° 0.1 mm 2 mps 743 mmHg 69%
    01:00 +15°C° 0.1 mm 2 mps 743 mmHg 71%
    02:00 +15°C° 0.3 mm 2 mps 742 mmHg 76%
    03:00 +15°C° 0.3 mm 2 mps 742 mmHg 81%
    04:00 +15°C° 0.3 mm 1 mps 742 mmHg 87%
    05:00 +15°C° 0 mm 2 mps 742 mmHg 86%
    06:00 +15°C° 0 mm 2 mps 741 mmHg 86%
    07:00 +14°C° 0 mm 3 mps 741 mmHg 86%
    08:00 +17°C° 0.1 mm 3 mps 741 mmHg 79%
    09:00 +18°C° 0.1 mm 3 mps 741 mmHg 72%
    10:00 +19°C° 0.1 mm 4 mps 741 mmHg 65%
    11:00 +20°C° 0.1 mm 4 mps 741 mmHg 63%
    12:00 +20°C° 0.1 mm 4 mps 741 mmHg 61%
    13:00 +21°C° 0.1 mm 4 mps 741 mmHg 59%
    14:00 +20°C° 0.2 mm 4 mps 741 mmHg 59%
    15:00 +20°C° 0.2 mm 4 mps 740 mmHg 60%
    16:00 +20°C° 0.2 mm 4 mps 740 mmHg 60%
    17:00 +19°C° 0.1 mm 3 mps 741 mmHg 66%
    18:00 +17°C° 0.1 mm 3 mps 741 mmHg 71%
    19:00 +16°C° 0.1 mm 3 mps 741 mmHg 76%
    20:00 +14°C° 0 mm 3 mps 741 mmHg 79%
    21:00 +14°C° 0 mm 3 mps 742 mmHg 81%
    22:00 +13°C° 0 mm 3 mps 742 mmHg 83%
    23:00 +13°C° 0.1 mm 4 mps 742 mmHg 83%

    26 September, Thursday

    Time Temperature Precipitation Wind Pressure Humidity
    00:00 +13°C° 0.1 mm 4 mps 742 mmHg 83%
    01:00 +13°C° 0.1 mm 4 mps 742 mmHg 82%
    02:00 +13°C° 0 mm 3 mps 743 mmHg 83%
    03:00 +13°C° 0 mm 3 mps 743 mmHg 85%
    04:00 +13°C° 0 mm 3 mps 743 mmHg 86%
    05:00 +13°C° 0 mm 3 mps 744 mmHg 85%
    06:00 +13°C° 0 mm 3 mps 744 mmHg 85%
    07:00 +13°C° 0 mm 3 mps 744 mmHg 84%
    08:00 +14°C° 0 mm 3 mps 744 mmHg 79%
    09:00 +16°C° 0 mm 3 mps 745 mmHg 74%
    10:00 +17°C° 0 mm 3 mps 745 mmHg 69%
    11:00 +18°C° 0.1 mm 3 mps 745 mmHg 65%
    12:00 +19°C° 0.1 mm 3 mps 745 mmHg 61%
    13:00 +19°C° 0.1 mm 3 mps 745 mmHg 57%
    14:00 +19°C° 0 mm 3 mps 745 mmHg 59%
    15:00 +19°C° 0 mm 3 mps 745 mmHg 60%
    16:00 +19°C° 0 mm 3 mps 745 mmHg 62%
    17:00 +17°C° 0 mm 3 mps 746 mmHg 69%
    18:00 +16°C° 0 mm 3 mps 746 mmHg 77%
    19:00 +14°C° 0 mm 2 mps 746 mmHg 85%
    20:00 +14°C° 0 mm 2 mps 746 mmHg 86%
    21:00 +14°C° 0 mm 2 mps 747 mmHg 88%
    22:00 +13°C° 0 mm 2 mps 747 mmHg 89%
    23:00 +13°C° 0 mm 2 mps 747 mmHg 89%

    27 September, Friday

    Time Temperature Precipitation Wind Pressure Humidity
    00:00 +13°C° 0 mm 2 mps 747 mmHg 89%
    01:00 +13°C° 0 mm 2 mps 747 mmHg 89%
    02:00 +13°C° 0 mm 2 mps 747 mmHg 90%
    03:00 +12°C° 0 mm 2 mps 747 mmHg 91%
    04:00 +12°C° 0 mm 2 mps 747 mmHg 93%
    05:00 +13°C° 0 mm 2 mps 747 mmHg 90%
    06:00 +13°C° 0 mm 2 mps 747 mmHg 88%
    07:00 +14°C° 0 mm 2 mps 747 mmHg 86%
    08:00 +14°C° 0 mm 3 mps 747 mmHg 79%
    09:00 +17°C° 0 mm 3 mps 747 mmHg 72%
    10:00 +19°C° 0 mm 3 mps 747 mmHg 65%
    11:00 +20°C° 0 mm 3 mps 747 mmHg 64%
    12:00 +20°C° 0 mm 3 mps 746 mmHg 62%
    13:00 +21°C° 0 mm 3 mps 746 mmHg 61%
    14:00 +21°C° 0 mm 3 mps 746 mmHg 62%
    15:00 +21°C° 0 mm 3 mps 746 mmHg 63%
    16:00 +21°C° 0 mm 3 mps 745 mmHg 64%
    17:00 +20°C° 0 mm 3 mps 745 mmHg 69%
    18:00 +18°C° 0 mm 3 mps 745 mmHg 74%
    19:00 +17°C° 0 mm 3 mps 745 mmHg 79%
    20:00 +17°C° 0 mm 3 mps 745 mmHg 79%
    21:00 +17°C° 0 mm 3 mps 745 mmHg 80%
    22:00 +16°C° 0 mm 3 mps 746 mmHg 80%
    23:00 +15°C° 0.2 mm 4 mps 745 mmHg 81%

    28 September, Saturday

    Time Temperature Precipitation Wind Pressure Humidity
    00:00 +15°C° 0.2 mm 4 mps 745 mmHg 81%
    01:00 +15°C° 0.2 mm 5 mps 745 mmHg 82%
    02:00 +15°C° 0.4 mm 4 mps 745 mmHg 85%
    03:00 +15°C° 0.4 mm 4 mps 745 mmHg 88%
    04:00 +16°C° 0.4 mm 3 mps 745 mmHg 91%
    05:00 +16°C° 0.1 mm 3 mps 745 mmHg 90%
    06:00 +15°C° 0.1 mm 4 mps 745 mmHg 88%
    07:00 +15°C° 0.1 mm 4 mps 745 mmHg 87%
    08:00 +17°C° 0.1 mm 4 mps 745 mmHg 81%
    09:00 +18°C° 0.1 mm 4 mps 745 mmHg 74%
    10:00 +19°C° 0.1 mm 5 mps 745 mmHg 68%
    11:00 +20°C° 0.3 mm 5 mps 745 mmHg 64%
    12:00 +20°C° 0.3 mm 5 mps 745 mmHg 60%
    13:00 +21°C° 0.3 mm 6 mps 744 mmHg 56%
    14:00 +21°C° 0 mm 5 mps 744 mmHg 54%
    15:00 +21°C° 0 mm 5 mps 744 mmHg 53%
    16:00 +20°C° 0 mm 4 mps 744 mmHg 52%
    17:00 +19°C° 0 mm 4 mps 744 mmHg 58%
    18:00 +18°C° 0 mm 4 mps 744 mmHg 64%
    19:00 +15°C° 0 mm 4 mps 744 mmHg 70%
    20:00 +15°C° 0.1 mm 4 mps 745 mmHg 73%
    21:00 +14°C° 0.1 mm 4 mps 745 mmHg 76%
    22:00 +14°C° 0.1 mm 4 mps 745 mmHg 79%
    23:00 +13°C° 0 mm 4 mps 745 mmHg 78%
    Show more